Regional Weather Roundup
Issued by NWS

Home | Current Version | Previous Version | Text Only | Print | Product List | Glossary On
Versions: 1 2 3 4 5 6 7 8 9 10 11 12 13 14 15 16 17 18 19 20 21 22 23 24 25 26 27 28 29 30 31 32 33 34 35 36 37 38 39 40 41 42 43 44 45 46 47 48 49 50
000
ASUS43 KDMX 041107
RWRIA

WEATHER ROUNDUP FOR IOWA
NATIONAL WEATHER SERVICE DES MOINES IA
600 AM CDT FRI SEP 04 2015

NOTE: "FAIR" INDICATES FEW OR NO CLOUDS BELOW 12,000 FEET WITH NO
SIGNIFICANT WEATHER AND/OR OBSTRUCTIONS TO VISIBILITY.

* - THESE STATIONS ARE NOT NWS STATIONS...THUS NOT UNDER NWS
QUALITY CONTROL.  THEY ALSO DO NOT REPORT WEATHER SUCH
AS PRECIPITATION OR FOG.

IAZ001>003-012>014-020>022-031>034-043>046-041200-
   NORTHWEST IOWA

CITY           SKY/WX    TMP DP  RH WIND       PRES   REMARKS
CARROLL *      CLEAR     70  70 100 S8        29.89F
CHEROKEE *     CLEAR     70  70 100 S5        29.87S
DENISON *      CLEAR     72  68  88 S9G17     29.87S
LE MARS *      MOCLDY    73  68  83 S7G14     29.86R
ORANGE CITY *  CLEAR     72  68  88 SE7       29.85S
SHELDON *      CLEAR     72  68  88 SE10      29.84S
SIOUX CITY     CLOUDY    73  66  78 SE5       29.86R
SPENCER        CLEAR     71  67  87 SE8       29.88S
STORM LAKE *   CLEAR     70  68  94 S9        29.90R
$$

IAZ055>058-069>071-079>083-090>094-041200-
   SOUTHWEST IOWA

CITY           SKY/WX    TMP DP  RH WIND       PRES   REMARKS
ATLANTIC *     CLEAR     72  68  88 S6        29.91R
AUDUBON *      CLEAR     70  66  88 S5        29.92S
CLARINDA *     CLEAR     70  68  94 CALM      29.93S
COUNCIL BLFS *   N/A     70  68  94 S9        29.90R
CRESTON *      CLEAR     70  66  88 S9        29.94F
LAMONI         CLEAR     70  67  90 S6        29.94S
RED OAK *      CLEAR     72  70  94 S6        29.91R
SHENANDOAH *   CLEAR     73  70  88 S7        29.90S
$$

IAZ047>049-059>061-072>074-084-041200-
   CENTRAL IOWA

CITY           SKY/WX    TMP DP  RH WIND       PRES   REMARKS
AMES           CLEAR     65  65 100 SE3       29.91F FOG
ANKENY *       CLEAR     68  68 100 CALM      29.92R
CHARITON *     CLEAR     68  66  94 S6        29.94S
DES MOINES     CLEAR     72  66  81 S7        29.92R
GRINNELL*      CLEAR     68  66  94 S5        29.95S
KNOXVILLE *    CLEAR     68  66  94 S6        29.93R
MARSHALLTOWN   CLEAR     71  66  84 S6        29.93S
PELLA *        PTCLDY    70  70 100 SE3       29.95R
PERRY *          N/A     70  68  94 S3        29.91S
$$

IAZ004>006-015-016-023>025-035-036-041200-
   NORTH CENTRAL IOWA

CITY           SKY/WX    TMP DP  RH WIND       PRES   REMARKS
ALGONA *       CLEAR     72  68  88 S8        29.90S
CLARION *      CLEAR     70  68  94 S7        29.91F
ESTHERVILLE    CLEAR     70  68  93 S9        29.89S
FORT DODGE *   CLEAR     72  66  83 SE5       29.91S
MASON CITY     CLEAR     66  65  96 SE5       29.94S
FOREST CITY *  CLEAR     66  66 100 CALM      29.92F
IOWA FALLS *     N/A     68  66  94 E5        29.94S
$$

IAZ007>011-017>019-026>030-037>042-050>054-066-041200-
   NORTHEAST IOWA

CITY           SKY/WX    TMP DP  RH WIND       PRES   REMARKS
CEDAR RAPIDS   CLEAR     70  68  93 CALM      29.95R
CHARLES CITY * CLEAR     70  70 100 SE6       29.96R
CLINTON *      CLEAR     68  66  94 E6        29.99R
DECORAH *      CLEAR     68  68 100 SE5       29.97R
DUBUQUE        FOG       70  70 100 CALM      29.99R VSB 1/2
MONTICELLO *   CLEAR     66  66 100 CALM      29.96S
OELWEIN *      CLEAR     68  68 100 E5        29.96S
WATERLOO       CLEAR     68  66  93 CALM      29.93S
$$

IAZ064-065-067-068-078-041200-
   EAST CENTRAL IOWA

CITY           SKY/WX    TMP DP  RH WIND       PRES   REMARKS
DAVENPORT      CLEAR     69  67  93 E5        29.97R
IOWA CITY      PTCLDY    71  69  93 S3        29.96S
MT. PLEASANT * PTCLDY    72  66  83 CALM      29.96S
MUSCATINE *    CLEAR     70  68  94 CALM      29.95S
QUAD CITIES    CLEAR     69  66  90 CALM      29.96R
$$

IAZ062-063-075>077-085>089-095>099-041200-
   SOUTHEAST IOWA

CITY           SKY/WX    TMP DP  RH WIND       PRES   REMARKS
BURLINGTON     PTCLDY    71  69  93 CALM      29.96S
FAIRFIELD *    CLEAR     70  66  88 CALM      29.96R
FORT MADISON * CLEAR     72  70  94 S3        29.97S
KEOKUK *       CLEAR     72  68  88 CALM      29.96S
OSKALOOSA *      N/A     68  66  94 S3        29.95S
CENTERVILLE *  CLEAR     66  66 100 SE3       29.97R
OTTUMWA        CLEAR     69  68  96 S7        29.93S
WASHINGTON *     N/A    N/A N/A N/A MISG        N/A
$$

ABBREVIATIONS USED IN REMARKS
   TC - TEMPERATURES IN CELSIUS
  WCI - WIND CHILL INDEX
   HX - HEAT INDEX
  VSB - VISIBILITY
$$




USA.gov is the U.S. government's official web portal to all federal, state and local government web resources and services.